sat.trackr.live / text

‹ back to catalog

UNKNOWN

NORAD 82698

UNKNOWN UNKNOWN UNKNOWN

§ Identity

Operator
Country
Launch date
Launch site
Launch vehicle
Mass (kg)
RCS (m²)

External: N2YO · Heavens-Above

§ Orbital elements

Epoch: 2026-05-24T01:45:52.367328Z

Period
108.27 min
Inclination
61.6078°
Eccentricity
0.0694227
Mean motion
13.30047679 rev/d
Perigee alt
624.2 km
Apogee alt
1,669.0 km
Semi-major
7,524.7 km
B*
8.5621e-4
RAAN
75.4470°
Arg perigee
349.8207°
Mean anomaly
8.9319°
Rev number
55,996

§ Raw data

UNKNOWN1 82698U          26144.07352277  .00001455  00000+0  85621-3 0  99922 82698  61.6078  75.4470 0694227 349.8207   8.9319 13.30047679559967

JSON: /api/v1/satellites/82698 · /tle

For live sub-satellite position, see the globe view (requires WebGL).

§ Visibility from observer

Set your observer location to see the next 7 days of passes ≥ 10°. The values pass through the URL so the page stays shareable.

No JS? Fill the form by hand. The geolocation button needs JavaScript.